GW1320 Weather Reports


time (UTC)temp
C
wind
direction
speed
KPH
gust
KPH
rain 1hr
cm
rain 24hr
cm
rain mn
cm
humidity
%
barometer
mb
20260508154549 12 239 8.0 16.1 0.00 0.00 0.00 68 1013.4
20260508153046 11 236 8.0 20.9 0.00 0.00 0.00 68 1013.3
20260508151549 11 222 11.3 20.9 0.00 0.00 0.00 68 1013.3
20260508150047 11 229 9.7 20.9 0.00 0.00 0.00 70 1013.5
20260508144548 11 244 9.7 17.7 0.00 0.00 0.00 69 1013.5
20260508143059 11 239 8.0 19.3 0.00 0.00 0.00 69 1013.4
20260508141552 11 241 9.7 16.1 0.00 0.00 0.00 70 1013.4
20260508140043 11 238 9.7 20.9 0.00 0.00 0.00 68 1013.5
20260508134548 11 254 11.3 17.7 0.00 0.00 0.00 69 1013.5
20260508133054 11 241 9.7 19.3 0.00 0.00 0.00 69 1013.5
20260508131546 11 250 9.7 19.3 0.00 0.00 0.00 70 1013.4
20260508130054 10 238 14.5 19.3 0.00 0.00 0.00 69 1013.4
20260508124544 10 250 11.3 16.1 0.00 0.00 0.00 71 1013.4
20260508123047 9 221 8.0 14.5 0.00 0.00 0.00 74 1013.4
20260508121603 8 360 3.2 12.9 0.00 0.00 0.00 75 1013.4
20260508120050 8 360 4.8 9.7 0.00 0.00 0.00 75 1013.4
20260508114545 8 360 4.8 14.5 0.00 0.00 0.00 75 1013.1
20260508113049 8 192 4.8 12.9 0.00 0.00 0.00 77 1013.0
20260508111547 7 360 3.2 8.0 0.00 0.00 0.00 79 1012.9
20260508110055 6 360 1.6 6.4 0.00 0.00 0.00 81 1012.8
20260508104546 6 360 1.6 4.8 0.00 0.00 0.00 83 1012.8
20260508103041 6 360 1.6 4.8 0.00 0.00 0.00 84 1012.6
20260508101541 5 360 0.0 4.8 0.00 0.00 0.00 85 1012.4
20260508100048 6 360 1.6 4.8 0.00 0.00 0.00 85 1012.4
20260508094600 6 360 3.2 6.4 0.00 0.00 0.00 86 1012.4
20260508093047 5 360 1.6 4.8 0.00 0.00 0.00 87 1012.5
20260508091551 6 360 1.6 4.8 0.00 0.00 0.00 87 1012.7
20260508090042 6 360 1.6 6.4 0.00 0.00 0.00 86 1012.8
20260508084543 7 360 3.2 6.4 0.00 0.00 0.00 85 1012.8
20260508083127 7 360 3.2 4.8 0.00 0.00 0.00 84 1012.8
20260508081554 7 360 0.0 4.8 0.00 0.00 0.00 82 1012.9
20260508080052 7 360 3.2 4.8 0.00 0.00 0.00 83 1012.8
20260508074542 8 360 3.2 4.8 0.00 0.00 0.00 81 1012.9
20260508073300 8 360 1.6 4.8 0.00 0.00 0.00 82 1012.9
20260508071551 8 360 1.6 4.8 0.00 0.00 0.00 81 1013.0
20260508070047 8 0 0.0 3.2 0.00 0.00 0.00 79 1013.0
20260508064607 8 360 3.2 4.8 0.00 0.00 0.00 79 1013.0
20260508063047 9 0 0.0 8.0 0.00 0.00 0.00 78 1013.4
20260508061702 9 360 6.4 16.1 0.00 0.00 0.00 76 1013.9
20260508060049 9 360 12.9 22.5 0.00 0.00 0.00 76 1013.9
20260508054548 9 360 24.1 35.4 0.00 0.00 0.00 77 1014.3
20260508053042 8 360 4.8 8.0 0.00 0.00 0.00 84 1014.1
20260508051545 8 0 0.0 4.8 0.00 0.00 0.00 85 1013.3
20260508050052 8 360 3.2 4.8 0.00 0.00 0.00 86 1013.3
20260508044546 8 360 1.6 4.8 0.00 0.00 0.00 81 1013.4
20260508043048 8 0 0.0 3.2 0.00 0.00 0.00 79 1013.4
20260508041545 8 360 0.0 3.2 0.00 0.00 0.00 79 1013.4
20260508040043 8 0 0.0 4.8 0.00 0.00 0.00 79 1013.4
20260508034551 9 360 0.0 3.2 0.00 0.00 0.00 77 1013.4
20260508033048 9 0 0.0 3.2 0.00 0.00 0.00 75 1013.6
20260508031547 9 0 0.0 4.8 0.00 0.00 0.00 72 1013.5
20260508030059 9 0 0.0 1.6 0.00 0.00 0.00 70 1013.6
20260508024558 9 360 0.0 1.6 0.00 0.00 0.00 70 1013.4
20260508023048 10 0 0.0 3.2 0.00 0.00 0.00 66 1013.3
20260508021548 9 0 0.0 1.6 0.00 0.00 0.00 71 1013.2
20260508020050 9 0 0.0 6.4 0.00 0.00 0.00 70 1013.2
20260508014548 10 360 3.2 8.0 0.00 0.00 0.00 72 1013.3
20260508013048 10 360 1.6 6.4 0.00 0.00 0.00 70 1013.1
20260508011558 10 360 3.2 4.8 0.00 0.00 0.00 71 1013.1
20260508010058 10 0 0.0 3.2 0.00 0.00 0.00 74 1013.1
20260508004557 10 360 1.6 4.8 0.00 0.00 0.00 69 1013.0
20260508003049 11 360 1.6 3.2 0.00 0.00 0.00 69 1013.0
20260508001547 11 0 0.0 4.8 0.00 0.00 0.00 65 1012.8
20260508000047 11 295 1.6 6.4 0.00 0.00 0.00 62 1012.7
20260507234542 12 360 4.8 12.9 0.00 0.00 0.00 60 1012.6
20260507233041 12 311 12.9 16.1 0.00 0.00 0.00 53 1012.6
20260507231604 13 306 12.9 19.3 0.00 0.00 0.00 50 1012.6
20260507230052 12 319 16.1 24.1 0.00 0.00 0.00 54 1012.8
20260507224602 13 316 17.7 24.1 0.00 0.00 0.00 52 1012.8
20260507223047 13 333 12.9 25.7 0.00 0.00 0.00 51 1012.8
20260507221542 12 317 12.9 24.1 0.00 0.00 0.00 50 1012.9
20260507220041 13 24 14.5 30.6 0.00 0.00 0.00 50 1012.9
20260507214548 13 298 14.5 27.4 0.00 0.00 0.00 50 1012.7
20260507213104 13 319 22.5 33.8 0.00 0.00 0.00 51 1012.8
20260507211549 13 327 19.3 29.0 0.00 0.00 0.00 51 1012.6
20260507210052 13 327 24.1 30.6 0.00 0.00 0.00 54 1012.6
20260507204556 13 314 20.9 33.8 0.00 0.00 0.00 55 1012.5
20260507203048 13 309 24.1 35.4 0.00 0.00 0.00 52 1012.4
20260507201547 13 313 25.7 35.4 0.00 0.00 0.00 53 1012.6
20260507200049 13 323 12.9 27.4 0.00 0.00 0.00 53 1012.6
20260507194546 13 300 29.0 40.2 0.00 0.00 0.00 54 1012.7
20260507193045 12 313 29.0 38.6 0.00 0.00 0.00 57 1012.9
20260507191542 13 299 25.7 37.0 0.00 0.00 0.00 58 1012.9
20260507190056 13 329 22.5 32.2 0.00 0.00 0.00 57 1012.9
20260507184547 12 301 20.9 38.6 0.00 0.00 0.00 58 1012.9
20260507183048 12 274 22.5 45.1 0.00 0.00 0.00 64 1013.1
20260507181546 12 281 22.5 37.0 0.00 0.00 0.00 66 1013.1
20260507180051 12 319 24.1 35.4 0.00 0.00 0.00 63 1013.1
20260507174542 12 281 16.1 32.2 0.00 0.00 0.00 65 1013.2
20260507173054 11 293 24.1 32.2 0.00 0.00 0.00 65 1013.3
20260507171551 11 250 20.9 30.6 0.00 0.00 0.00 69 1013.5
20260507170050 11 312 20.9 35.4 0.00 0.00 0.00 64 1013.7
20260507164548 11 314 24.1 37.0 0.00 0.00 0.00 65 1013.6
20260507163051 11 300 25.7 33.8 0.00 0.00 0.00 64 1013.8
20260507161548 11 273 17.7 29.0 0.00 0.00 0.00 61 1013.6
20260507160056 11 262 20.9 30.6 0.00 0.00 0.00 67 1013.5